User: anonymous
Location: Caltech
(34.1382°N, 118.1253°W)
Time: 03:50:52
(UTC-07:00)
Language:

HO-68 - Orbit

View from above orbital plane
View from above orbital plane
View from above satellite
View from above satellite

Ground track
Ground track

The orbit data is extracted from the following two-line orbital elements,

1 36122U 09072B   14238.18795362 -.00000043  00000-0  00000+0 0  8852
2 36122 100.2418 287.9118 0007636 079.1569 281.0414 13.16317548225645
Epoch (UTC): 26 August 2014 04:30:39
Eccentricity: 0.0007636
inclination: 100.2418°
perigee height: 1193 km
apogee height: 1204 km
right ascension of ascending node: 287.9118°
argument of perigee: 79.1569°
revolutions per day: 13.16317548
mean anomaly at epoch: 281.0414°
orbit number at epoch: 22564

The dashed part of the orbit path shows where the satellite is in the earth's shadow,  

DLR